This demonstration page uses our WeatherBlox Daily Observations layout. Learn more.

Left ArrowRight Arrow

41.55636, -103.73856

Hourly Observations for November 18, 2021

Temp ( °F °C ) Dew Point ( °F °C ) Humidity (%) Winds ( mph kmh ) Pressure ( in mb ) Visibility ( mi km ) Precip ( " mm )
12:58 am 00:58 Clear 20 -6.9 4 -15.8 50 50 NW 3 6 30.50 1033 10 16 0.00 0.00
1:58 am 01:58 Clear 17 -8.4 2 -16.5 52 52 WSW 3 6 30.50 1033 10 16 0.00 0.00
2:58 am 02:58 Clear 17 -8.5 2 -16.5 53 53 W 3 6 30.50 1033 10 16 0.00 0.00
3:58 am 03:58 Clear 16 -8.8 2 -16.5 54 54 SSW 7 11 30.49 1033 10 16 0.00 0.00
4:58 am 04:58 Clear 18 -7.9 3 -16.2 52 52 SW 3 6 30.52 1033 10 16 0.00 0.00
5:58 am 05:58 Clear 17 -8.2 2 -16.5 52 52 Calm 30.52 1034 10 16 0.00 0.00
6:58 am 06:58 Sunny 19 -7 10 -12 68 68 SSW 7 11 30.53 1034 10 16 0.00 0.00
7:58 am 07:58 Sunny 25 -4 14 -10 63 63 SSW 7 11 30.50 1033 10 16 0.00 0.00
8:58 am 08:58 Sunny 33 0.8 17 -8.5 50 50 SW 12 19 30.46 1031 10 16 0.00 0.00
9:58 am 09:58 Sunny 41 5.1 12 -10.9 31 31 SSW 16 26 30.41 1030 10 16 0.00 0.00
10:58 am 10:58 Sunny 44 6.9 10 -12 25 25 SSW 16 26 30.38 1029 10 16 0.00 0.00
11:58 am 11:58 Sunny 48 8.9 2 -16.5 15 15 SSW 21 33 30.30 1026 10 16 0.00 0.00
12:58 pm 12:58 Sunny 46 7.7 2 -16.4 16 16 S 32 52 30.24 1024 10 16 0.00 0.00
1:58 pm 13:58 Sunny 48 8.9 -1 -18.1 13 13 S 29 46 30.22 1023 10 16 0.00 0.00
2:58 pm 14:58 Sunny 48 9 -3 -19.6 11 11 S 28 44 30.21 1023 10 16 0.00 0.00
3:58 pm 15:58 Sunny 45 7.1 0 -17.9 15 15 S 25 41 30.21 1023 10 16 0.00 0.00
4:58 pm 16:58 Clear 39 3.9 1 -17.1 20 20 SSE 14 22 30.21 1023 10 16 0.00 0.00
5:58 pm 17:58 Clear 44 6.9 4 -15.3 19 19 S 22 35 30.16 1022 10 16 0.00 0.00
7:58 pm 19:58 Mostly Cloudy 39 4 9 -12.7 29 29 SSW 24 39 30.12 1020 10 16 0.00 0.00
8:58 pm 20:58 Mostly Cloudy 39 4.1 9 -12.8 28 28 SSW 22 35 30.10 1019 10 16 0.00 0.00
9:58 pm 21:58 Mostly Cloudy 38 3.6 9 -12.6 30 30 SW 14 22 30.06 1018 10 16 0.00 0.00
10:58 pm 22:58 Mostly Cloudy 42 5.4 8 -13.6 24 24 SW 13 20 30.02 1017 10 16 0.00 0.00
11:58 pm 23:58 Mostly Clear 41 4.9 6 -14.2 24 24 W 12 19 30.01 1016 10 16 0.00 0.00

Powered by AerisWeather